RA46878 EFHK-EFHK

Flight info

Callsign RA46878
Flight time 0h 7m
Altitude 10000
Route EFHK EFHK
Aircraft B407/L-V/N

Departure

Time 2026-04-25 17:47
Airport Helsinki Vantaa Airport (EFHK)

Arrival

Time 2026-04-25 17:54
Airport Helsinki Vantaa Airport (EFHK)
Time Latitude Longitude Altitude Speed Heading
2026-04-25 17:46 60.31296 24.98902 149 ft 0 kts 246°
2026-04-25 17:47 60.31263 24.98887 231 ft 25 kts 205°
2026-04-25 17:47 60.31073 24.98697 516 ft 49 kts 211°
2026-04-25 17:47 60.30726 24.98647 886 ft 77 kts 174°
2026-04-25 17:47 60.30364 24.98637 1090 ft 76 kts 211°
2026-04-25 17:48 60.29228 24.98996 2168 ft 57 kts 173°
2026-04-25 17:48 60.28782 24.99160 2456 ft 66 kts 188°
2026-04-25 17:49 60.28326 24.99022 2804 ft 77 kts 230°
2026-04-25 17:49 60.27901 24.98219 3310 ft 95 kts 253°
2026-04-25 17:49 60.27744 24.97671 4104 ft 20 kts 26°
2026-04-25 17:49 60.27701 24.97632 3813 ft 17 kts 82°
2026-04-25 17:50 60.27397 24.97985 3784 ft 85 kts 167°
2026-04-25 17:50 60.26644 24.98251 3421 ft 124 kts 180°
2026-04-25 17:50 60.25786 24.97851 3167 ft 126 kts 201°
2026-04-25 17:50 60.25044 24.97058 2993 ft 121 kts 214°
2026-04-25 17:51 60.24516 24.95896 2791 ft 97 kts 271°
2026-04-25 17:51 60.24096 24.94749 2687 ft 102 kts 230°
2026-04-25 17:51 60.23574 24.93793 2668 ft 101 kts 232°
2026-04-25 17:51 60.23059 24.92847 2659 ft 101 kts 231°
2026-04-25 17:52 60.22510 24.91924 2618 ft 105 kts 230°
2026-04-25 17:52 60.22320 24.91600 2573 ft 109 kts 229°
2026-04-25 17:52 60.21353 24.89939 2450 ft 110 kts 233°
2026-04-25 17:52 60.20754 24.88891 2286 ft 112 kts 227°
2026-04-25 17:53 60.20168 24.87981 2341 ft 104 kts 224°
2026-04-25 17:53 60.19529 24.87223 2310 ft 111 kts 213°
2026-04-25 17:53 60.18837 24.86456 2011 ft 118 kts 219°
2026-04-25 17:53 60.18252 24.85381 1623 ft 103 kts 246°
2026-04-25 17:54 60.17741 24.84344 951 ft 103 kts 231°
2026-04-25 17:54 60.17395 24.83265 217 ft 77 kts 261°
2026-04-25 17:54 60.17343 24.82786 29 ft 0 kts 281°
2026-04-25 17:56 60.17343 24.82787 29 ft 1 kts 313°